Regional Weather Roundup
Issued by NWS

Home | Current Version | Previous Version | Graphics & Text | Print | Product List | Glossary On
Versions: 1 2 3 4 5 6 7 8 9 10 11 12 13 14 15 16 17 18 19 20 21 22 23 24 25 26 27 28 29 30 31 32 33 34 35 36 37 38 39 40 41 42 43 44 45 46 47 48 49 50
000
ASUS45 KTFX 300719
RWRMT
MONTANA HOURLY WEATHER ROUNDUP
NATIONAL WEATHER SERVICE GREAT FALLS MT
1219 AM MST FRI JAN 30 2015

NOTE: "FAIR" INDICATES FEW OR NO CLOUDS BELOW 12000 FEET WITH NO
SIGNIFICANT WEATHER AND/OR OBSTRUCTIONS TO VISIBILITY.

* THESE STATIONS ARE NOT UNDER NWS QUALITY CONTROL. THEY DO NOT
   REPORT WEATHER SUCH AS PRECIPITATION OR FOG.

MTZ001>007-043-300800-
WEST OF THE DIVIDE
CITY           SKY/WX    TMP DP  RH WIND       PRES   REMARKS
KALISPELL      FOG       12  10  92 N5        30.37R VSB M1/4 WCI   4
MISSOULA       PTCLDY    21  19  92 W3        30.37S
BUTTE          MOCLDY    21  19  92 CALM      30.30S
MULLAN PASS    CLEAR     30  21  69 S3        30.28S
* ANACONDA     MOCLDY    28  18  66 S5         N/A   WCI  22
* ESSEX        N/A       16  14  92 N/A        N/A
* EUREKA APT   CLEAR     19  18  96 CALM      30.41R
* HAMILTON APT PTCLDY    27  23  85 S3        30.35S
* LIBBY APT    CLEAR     27  25  92 CALM      30.41R VSB M1/4
* LINCOLN      N/A       20  15  81 SW1G7      N/A
* LOOKOUT PASS N/A       25  23  92 S2         N/A
* POLSON       N/A       24  23  96 N/A        N/A
* RONAN APT    CLEAR     21  21 100 N/A        N/A
* SEELEY LAKE  N/A       14  11  88 N3         N/A
* THOMP F APT  CLEAR     29  21  72 N8         N/A   WCI  21
$$

MTZ008-052>055-300800-
SOUTHWEST MONTANA
CITY           SKY/WX    TMP DP  RH WIND       PRES   REMARKS
BOZEMAN        PTCLDY    25  19  78 E7        30.30S WCI  17
DILLON         PTCLDY    27  19  72 S9        30.29F WCI  18
* W YELLOWSTON MOCLDY    14  12  92 N/A        N/A
* THREE FORKS  PTCLDY   N/A N/A N/A N/A        N/A
* BOULDER HILL N/A       32  18  56 SW10       N/A   WCI  24
* MONIDA PASS  N/A       12  11  96 W4         N/A
* RAYNOLDS PAS N/A       19  -2  39 SE6        N/A   WCI  11
* WHITEHALL    N/A       26  22  85 NE1        N/A
* WISE RIVER   N/A       19  15  84 NW5        N/A   WCI  12
$$

MTZ009>010-012-014-046-048-049-054-300800-
EAST SLOPES AND CENTRAL MONTANA
CITY           SKY/WX    TMP DP  RH WIND       PRES   REMARKS
CUT BANK       CLEAR     28  16  61 W12       30.18F WCI  18
GREAT FALLS    CLEAR     32  19  59 SW14      30.21R WCI  22
HELENA         PTCLDY    27  21  78 SE3       30.29R
MALMSTROM AFB  CLEAR     30  19  64 SW8       30.22S WCI  22
* CONRAD       CLEAR     30  18  61 CALM       N/A
* DEARBORN     N/A       34  22  61 S7         N/A   WCI  28
* EAST GLACIER N/A       34  12  40 W25G36     N/A   WCI  21
* MONARCH      N/A       31   7  36 S11        N/A   WCI  22
* PENDROY      N/A       37   4  25 NW12       N/A   WCI  29
* ROGERS PASS  N/A       29  18  63 W5         N/A   WCI  24
* SWEET GRASS  N/A       35  13  40 W14        N/A   WCI  26
* WHITE SULPH  N/A       28  18  66 E5         N/A   WCI  22
$$

MTZ011-013-016-021-035-040-045-047-050-051-300800-
NORTH CENTRAL MONTANA
CITY           SKY/WX    TMP DP  RH WIND       PRES   REMARKS
HAVRE          CLEAR     30  27  89 SW12      30.19S WCI  20
LEWISTOWN      CLEAR     27  18  69 SE5       30.21R WCI  21
* CHINOOK      CLEAR     25  25 100 CALM      30.20S
* MALTA APT    CLEAR     23  19  85 N/A        N/A
* CHESTER      N/A       26  24  92 E1         N/A
* DENTON       N/A       28  23  81 S5         N/A   WCI  22
* GEYSER       N/A       32  12  43 W11        N/A   WCI  23
* JUDITH GAP   N/A       30  19  64 SE2        N/A
* LOMA         N/A       32  25  75 W6         N/A   WCI  26
$$

MTZ017>020-022>027-061-062-300800-
NORTHEAST MONTANA
CITY           SKY/WX    TMP DP  RH WIND       PRES   REMARKS
GLASGOW        PTCLDY    25  21  85 E7        30.17F WCI  17
GLENDIVE       CLEAR     28  21  75 S8        30.21F WCI  20
JORDAN         PTCLDY    28  27  96 W5        30.18F WCI  22
SIDNEY         CLEAR     23  19  85 CALM      30.23F
WOLF POINT     PTCLDY    25  21  85 N3        30.19F
* BEAVER HILL  N/A       34  20  57 S16        N/A   WCI  24
* CIRCLE       N/A       35  27  73 SW8        N/A   WCI  28
* LINDSAY DVD  N/A       33  22  64 E2         N/A
* NAVAJO       N/A       25  21  85 S4         N/A
* PLENTYWOOD A PTCLDY    25  19  78 E5        30.18F WCI  19
* POPLAR APT   PTCLDY    25  21  85 N/A       30.19F
* SACO         N/A       18  16  92 W4         N/A
* SCOBEY APT   CLEAR     23  18  81 N/A        N/A
$$

MTZ028>042-056>058-300800-
SOUTHCENTRAL AND SOUTHEAST MONTANA
CITY           SKY/WX    TMP DP  RH WIND       PRES   REMARKS
BAKER          CLEAR     32  18  56 S14       30.23F WCI  22
BILLINGS       PTCLDY    36  27  70 SW13      30.22F WCI  27
LIVINGSTON     MOCLDY    37  19  48 W20       30.26S WCI  27
MILES CITY     CLEAR     32  23  69 S12       30.21F WCI  23
* BIG TIMBER A MOCLDY    36  19  50 W13G20    30.24S WCI  27
* FORSYTH APT  CLEAR     30  23  75 SW3       30.22S
* LAUREL APT   MOCLDY    39  23  53 SW9        N/A   WCI  33
* ROUNDUP APT  CLEAR     34  25  70 SW10       N/A   WCI  26
* ALZADA       N/A       27  16  63 NE6        N/A   WCI  20
* HYSHAM       N/A       36  24  62 W6         N/A   WCI  31
* LAME DEER    N/A       35  23  62 S4         N/A
* REED POINT   N/A       27  26  96 SW1        N/A
$$

REGIONAL REPORTS...DAKOTAS
CITY           SKY/WX    TMP DP  RH WIND       PRES   REMARKS
WILLISTON      PTCLDY    27  19  72 S7        30.21F WCI  19
DICKINSON      CLEAR     25  18  75 S12       30.24F WCI  14
BEACH          CLEAR     28  19  69 S8        30.23F WCI  20
CROSBY         CLEAR     25  23  92 S13G18    30.21F WCI  13
TIOGA          FAIR      19  19 100 SE3       30.26F
WATFORD CITY   CLEAR     23  21  92 E7        30.23F WCI  15
BISMARCK       CLEAR     18  16  92 SE8       30.39F WCI   8
GRAND FORKS    CLOUDY     7   0  73 S7        30.54F WCI  -5
FARGO          MOCLDY     9   1  70 SE6       30.55F WCI  -1
BUFFALO SD     CLEAR     27  16  63 S9        30.20F WCI  18
RAPID CITY     PTCLDY    23  12  63 SE7       30.29F WCI  15
$$

REGIONAL REPORTS...WYOMING/IDAHO/WASHINGTON
CITY           SKY/WX    TMP DP  RH WIND       PRES   REMARKS
GILLETTE       CLEAR     30  21  69 S9        30.21F WCI  22
SHERIDAN       PTCLDY    23  18  81 CALM      30.22S
CODY           MOCLDY    27  25  92 CALM      30.25F
YELLOWSTONE LA MOCLDY     1  -4  79 CALM      30.33F
SALMON         CLOUDY    21  19  92 CALM      30.39S
MULLAN PASS    CLEAR     30  21  69 S3        30.28S
SAND POINT     PTCLDY    28  28 100 CALM      30.40R
SPOKANE        FOG       27  27 100 N5        30.37R VSB M1/4 WCI  21
$$

REGIONAL REPORTS...ALBERTA
CITY           SKY/WX    TMP DP  RH WIND       PRES   REMARKS
CALGARY        FAIR      28  14  56 S5        30.16S WCI  22
LETHBRIDGE     FAIR      28  21  75 SW10      30.18S WCI  19
MEDICINE HAT   FOG       25  25 100 W9        30.20R VSB M1/4 WCI  16
EDMONTON       FAIR      23  19  85 SW3       30.17S
WATERTON GATE  N/A       37  16  42 SW20G29    N/A   WCI  27
CARDSTON       N/A       30  16  56 E3         N/A
MILK RIVER     N/A       28  19  69 NW13       N/A   WCI  17
$$

REGIONAL REPORTS...SASKATCHEWAN
CITY           SKY/WX    TMP DP  RH WIND       PRES   REMARKS
SWIFT CURRENT  CLEAR     27  23  85 W13       30.13R WCI  16
REGINA         PTCLDY    16  14  92 SE14      30.18F WCI   2
VAL MARIE      N/A       23  21  92 CALM       N/A
ASSINIBOIA     N/A       21  18  88 SW5        N/A   WCI  14
CORONACH       N/A       21  18  88 SE5        N/A   WCI  14

$$



USA.gov is the U.S. government's official web portal to all federal, state and local government web resources and services.